Location: Wangen+im+Allg�u
(47.7098°N, 9.8383°E)
Time: 08:11:23
(UTC+01:00)

ISS - Pass Details

Date: 09 January 2018
Orbit: 401 x 406 km, 51.6° (Epoch: 17 January)

Event Time Altitude Azimuth Distance (km) Brightness Sun altitude
Exits shadow 05:50:18 37° 43° (NE) 656 -2.6 -22.3°
Drops below altitude 10° 05:52:46 10° 81° (E) 1,466 0.0 -21.9°
Sets 05:54:55 0° 89° (E) 2,326 1.5 -21.5°
